Time,TemperatureF,DewpointF,PressureIn,WindDirection,WindDirectionDegrees,WindSpeedMPH,WindSpeedGustMPH,Humidity,HourlyPrecipIn,Conditions,Clouds,dailyrainin,SoftwareType,DateUTC
2013-03-22 00:03:00,24.0,18.0,30.03,NNW,339,0.0,1.0,79,0.00,,,0.03,,2013-03-22 04:03:00,
2013-03-22 00:12:00,24.0,18.0,30.03,NNW,339,0.0,1.0,79,0.00,,,0.03,,2013-03-22 04:12:00,
2013-03-22 00:23:00,24.0,19.0,30.03,NNW,339,0.0,0.0,80,0.00,,,0.03,,2013-03-22 04:23:00,
2013-03-22 00:32:00,23.0,18.0,30.04,NNW,339,0.0,0.0,81,0.00,,,0.03,,2013-03-22 04:32:00,
2013-03-22 00:43:00,23.0,18.0,30.04,NNW,339,0.0,0.0,81,0.00,,,0.03,,2013-03-22 04:43:00,
2013-03-22 00:52:00,23.0,19.0,30.03,NNW,339,0.0,0.0,84,0.00,,,0.03,,2013-03-22 04:52:00,
2013-03-22 01:02:00,23.0,20.0,30.04,NNW,332,0.0,2.0,87,0.00,,,0.03,,2013-03-22 05:02:00,
2013-03-22 01:12:00,23.0,20.0,30.04,NNW,332,0.0,2.0,87,0.00,,,0.03,,2013-03-22 05:12:00,
2013-03-22 01:22:00,24.0,20.0,30.04,NNW,332,0.0,1.0,84,0.00,,,0.03,,2013-03-22 05:22:00,
2013-03-22 01:32:00,23.0,19.0,30.04,NNW,332,0.0,0.0,83,0.00,,,0.03,,2013-03-22 05:32:00,
2013-03-22 01:42:00,23.0,19.0,30.04,NNW,332,0.0,0.0,83,0.00,,,0.03,,2013-03-22 05:42:00,
2013-03-22 01:52:00,23.0,19.0,30.04,NNW,332,0.0,1.0,84,0.00,,,0.03,,2013-03-22 05:52:00,
2013-03-22 02:02:00,24.0,19.0,30.03,NNW,336,0.0,2.0,81,0.00,,,0.03,,2013-03-22 06:02:00,
2013-03-22 02:13:00,24.0,19.0,30.03,NNW,336,0.0,2.0,81,0.00,,,0.03,,2013-03-22 06:13:00,
2013-03-22 02:22:00,24.0,19.0,30.04,NW,308,0.0,3.0,80,0.00,,,0.03,,2013-03-22 06:22:00,
2013-03-22 02:32:00,24.0,20.0,30.04,WNW,282,0.0,2.0,83,0.00,,,0.03,,2013-03-22 06:32:00,
2013-03-22 02:42:00,24.0,20.0,30.04,WNW,282,0.0,2.0,83,0.00,,,0.03,,2013-03-22 06:42:00,
2013-03-22 02:52:00,24.0,20.0,30.03,WNW,282,0.0,1.0,83,0.00,,,0.03,,2013-03-22 06:52:00,
2013-03-22 03:02:00,24.0,20.0,30.04,WNW,283,0.0,2.0,83,0.00,,,0.03,,2013-03-22 07:02:00,
2013-03-22 03:12:00,24.0,20.0,30.04,WNW,283,0.0,2.0,83,0.00,,,0.03,,2013-03-22 07:12:00,
2013-03-22 03:22:00,24.0,19.0,30.03,West,279,0.0,2.0,82,0.00,,,0.03,,2013-03-22 07:22:00,
2013-03-22 03:32:00,24.0,19.0,30.03,West,277,0.0,2.0,82,0.00,,,0.03,,2013-03-22 07:32:00,
2013-03-22 03:42:00,24.0,19.0,30.03,West,277,0.0,2.0,82,0.00,,,0.03,,2013-03-22 07:42:00,
2013-03-22 03:52:00,24.0,20.0,30.03,West,263,0.0,2.0,83,0.00,,,0.03,,2013-03-22 07:52:00,
2013-03-22 04:03:00,24.0,20.0,30.04,NW,322,0.0,2.0,83,0.00,,,0.03,,2013-03-22 08:03:00,
2013-03-22 04:12:00,24.0,20.0,30.04,NW,322,0.0,2.0,83,0.00,,,0.03,,2013-03-22 08:12:00,
2013-03-22 04:22:00,23.0,19.0,30.03,NW,322,0.0,1.0,85,0.00,,,0.03,,2013-03-22 08:22:00,
2013-03-22 04:32:00,23.0,19.0,30.03,NW,315,0.0,2.0,84,0.00,,,0.03,,2013-03-22 08:32:00,
2013-03-22 04:42:00,23.0,19.0,30.03,NW,315,0.0,2.0,84,0.00,,,0.03,,2013-03-22 08:42:00,
2013-03-22 04:52:00,23.0,19.0,30.03,NW,322,0.0,1.0,84,0.00,,,0.03,,2013-03-22 08:52:00,
2013-03-22 05:02:00,23.0,19.0,30.03,NW,317,0.0,1.0,84,0.00,,,0.03,,2013-03-22 09:02:00,
2013-03-22 05:12:00,23.0,19.0,30.03,NW,317,0.0,1.0,84,0.00,,,0.03,,2013-03-22 09:12:00,
2013-03-22 05:22:00,23.0,19.0,30.03,NW,313,0.0,2.0,86,0.00,,,0.03,,2013-03-22 09:22:00,
2013-03-22 05:32:00,22.0,18.0,30.03,NW,308,0.0,2.0,86,0.00,,,0.03,,2013-03-22 09:32:00,
2013-03-22 05:42:00,22.0,18.0,30.03,NW,308,0.0,2.0,86,0.00,,,0.03,,2013-03-22 09:42:00,
2013-03-22 05:53:00,22.0,19.0,30.03,West,269,0.0,2.0,87,0.00,,,0.03,,2013-03-22 09:53:00,
2013-03-22 06:03:00,22.0,19.0,30.03,West,269,0.0,2.0,87,0.00,,,0.03,,2013-03-22 10:03:00,
2013-03-22 06:12:00,22.0,19.0,30.03,West,269,0.0,2.0,87,0.00,,,0.03,,2013-03-22 10:12:00,
2013-03-22 06:22:00,22.0,19.0,30.03,West,271,0.0,2.0,87,0.00,,,0.03,,2013-03-22 10:22:00,
2013-03-22 06:32:00,22.0,19.0,30.04,West,271,0.0,2.0,87,0.00,,,0.03,,2013-03-22 10:32:00,
2013-03-22 06:42:00,22.0,19.0,30.04,West,271,0.0,2.0,87,0.00,,,0.03,,2013-03-22 10:42:00,
2013-03-22 06:52:00,22.0,19.0,30.04,West,271,0.0,1.0,87,0.00,,,0.03,,2013-03-22 10:52:00,
2013-03-22 07:03:00,22.0,19.0,30.04,NW,310,0.0,2.0,87,0.00,,,0.03,,2013-03-22 11:03:00,
2013-03-22 07:12:00,22.0,19.0,30.04,NW,310,0.0,2.0,87,0.00,,,0.03,,2013-03-22 11:12:00,
2013-03-22 07:22:00,22.0,18.0,30.05,NW,310,0.0,1.0,86,0.00,,,0.03,,2013-03-22 11:22:00,
2013-03-22 07:33:00,21.0,18.0,30.04,NW,310,0.0,1.0,87,0.00,,,0.03,,2013-03-22 11:33:00,
2013-03-22 07:42:00,21.0,18.0,30.04,NW,310,0.0,1.0,87,0.00,,,0.03,,2013-03-22 11:42:00,
2013-03-22 07:52:00,21.0,18.0,30.05,NW,310,0.0,1.0,88,0.00,,,0.03,,2013-03-22 11:52:00,
2013-03-22 08:02:00,21.0,18.0,30.05,NW,310,0.0,0.0,88,0.00,,,0.03,,2013-03-22 12:02:00,
2013-03-22 08:12:00,21.0,18.0,30.05,NW,310,0.0,0.0,88,0.00,,,0.03,,2013-03-22 12:12:00,
2013-03-22 08:22:00,21.0,18.0,30.05,NW,310,0.0,1.0,89,0.00,,,0.03,,2013-03-22 12:22:00,
2013-03-22 08:32:00,22.0,19.0,30.04,NW,310,0.0,1.0,88,0.00,,,0.03,,2013-03-22 12:32:00,
2013-03-22 08:42:00,22.0,19.0,30.04,NW,310,0.0,1.0,88,0.00,,,0.03,,2013-03-22 12:42:00,
2013-03-22 08:52:00,23.0,20.0,30.05,NW,310,0.0,2.0,87,0.00,,,0.03,,2013-03-22 12:52:00,
2013-03-22 09:02:00,24.0,20.0,30.04,NW,309,0.0,1.0,86,0.00,,,0.03,,2013-03-22 13:02:00,
2013-03-22 09:12:00,24.0,20.0,30.04,NW,309,0.0,1.0,86,0.00,,,0.03,,2013-03-22 13:12:00,
2013-03-22 09:22:00,26.0,22.0,30.04,WSW,242,0.0,2.0,84,0.00,,,0.03,,2013-03-22 13:22:00,
2013-03-22 09:32:00,28.0,23.0,30.04,WNW,285,0.0,4.0,81,0.00,,,0.03,,2013-03-22 13:32:00,
2013-03-22 09:42:00,28.0,23.0,30.04,WNW,285,0.0,4.0,81,0.00,,,0.03,,2013-03-22 13:42:00,
2013-03-22 09:52:00,29.0,23.0,30.04,NW,314,1.0,3.0,78,0.00,,,0.03,,2013-03-22 13:52:00,
2013-03-22 10:02:00,30.0,24.0,30.05,WNW,282,1.0,4.0,77,0.00,,,0.03,,2013-03-22 14:02:00,
2013-03-22 10:12:00,30.0,24.0,30.05,WNW,282,1.0,4.0,77,0.00,,,0.03,,2013-03-22 14:12:00,
2013-03-22 10:22:00,31.0,24.0,30.04,NNW,344,0.0,5.0,75,0.00,,,0.02,,2013-03-22 14:22:00,
2013-03-22 10:32:00,32.0,24.0,30.04,NW,317,3.0,7.0,71,0.00,,,0.02,,2013-03-22 14:32:00,
2013-03-22 10:42:00,32.0,24.0,30.04,NW,317,3.0,7.0,71,0.00,,,0.02,,2013-03-22 14:42:00,
2013-03-22 10:52:00,33.0,25.0,30.04,NNE,23,0.0,5.0,71,0.00,,,0.02,,2013-03-22 14:52:00,
2013-03-22 11:02:00,34.0,24.0,30.04,NNW,333,0.0,4.0,67,0.00,,,0.02,,2013-03-22 15:02:00,
2013-03-22 11:12:00,34.0,24.0,30.04,NNW,333,0.0,4.0,67,0.00,,,0.02,,2013-03-22 15:12:00,
2013-03-22 11:22:00,35.0,23.0,30.04,NE,35,1.0,3.0,62,0.00,,,0.00,,2013-03-22 15:22:00,
2013-03-22 11:32:00,35.0,23.0,30.04,North,360,0.0,6.0,61,0.00,,,0.00,,2013-03-22 15:32:00,
2013-03-22 11:42:00,35.0,23.0,30.04,North,360,0.0,6.0,61,0.00,,,0.00,,2013-03-22 15:42:00,
2013-03-22 11:53:00,36.0,24.0,30.05,WSW,241,1.0,5.0,61,0.00,,,0.00,,2013-03-22 15:53:00,
2013-03-22 12:02:00,35.0,23.0,30.04,NW,317,2.0,5.0,61,0.00,,,0.00,,2013-03-22 16:02:00,
2013-03-22 12:13:00,37.0,24.0,30.05,WSW,243,2.0,5.0,59,0.00,,,0.00,,2013-03-22 16:13:00,
2013-03-22 12:22:00,37.0,24.0,30.05,WSW,243,2.0,5.0,59,0.00,,,0.00,,2013-03-22 16:22:00,
2013-03-22 12:32:00,37.0,23.0,30.05,West,270,0.0,7.0,57,0.00,,,0.00,,2013-03-22 16:32:00,
2013-03-22 12:42:00,37.0,23.0,30.05,West,270,0.0,7.0,57,0.00,,,0.00,,2013-03-22 16:42:00,
2013-03-22 12:52:00,37.0,24.0,30.05,WSW,243,1.0,6.0,58,0.00,,,0.00,,2013-03-22 16:52:00,
2013-03-22 13:03:00,39.0,25.0,30.04,WNW,294,1.0,7.0,58,0.00,,,0.00,,2013-03-22 17:03:00,
2013-03-22 13:12:00,39.0,24.0,30.04,WNW,298,2.0,7.0,54,0.00,,,0.00,,2013-03-22 17:12:00,
2013-03-22 13:23:00,39.0,24.0,30.04,WNW,298,2.0,7.0,54,0.00,,,0.00,,2013-03-22 17:23:00,
2013-03-22 13:32:00,40.0,23.0,30.04,WNW,291,3.0,9.0,50,0.00,,,0.00,,2013-03-22 17:32:00,
2013-03-22 13:42:00,40.0,23.0,30.04,WNW,291,3.0,9.0,50,0.00,,,0.00,,2013-03-22 17:42:00,
2013-03-22 13:53:00,41.0,24.0,30.04,North,355,1.0,5.0,50,0.00,,,0.00,,2013-03-22 17:53:00,
2013-03-22 14:02:00,42.0,23.0,30.04,NW,323,2.0,6.0,47,0.00,,,0.00,,2013-03-22 18:02:00,
2013-03-22 14:12:00,42.0,23.0,30.04,NW,323,2.0,6.0,47,0.00,,,0.00,,2013-03-22 18:12:00,
2013-03-22 14:22:00,41.0,23.0,30.03,NNE,22,2.0,7.0,48,0.00,,,0.00,,2013-03-22 18:22:00,
2013-03-22 14:33:00,41.0,24.0,30.03,SW,215,2.0,7.0,50,0.00,,,0.00,,2013-03-22 18:33:00,
2013-03-22 14:42:00,41.0,24.0,30.03,SW,215,2.0,7.0,50,0.00,,,0.00,,2013-03-22 18:42:00,
2013-03-22 14:52:00,41.0,23.0,30.03,SW,218,2.0,7.0,48,0.00,,,0.00,,2013-03-22 18:52:00,
2013-03-22 15:02:00,42.0,23.0,30.02,WSW,237,2.0,6.0,47,0.00,,,0.00,,2013-03-22 19:02:00,
2013-03-22 15:12:00,42.0,23.0,30.02,WSW,237,2.0,6.0,47,0.00,,,0.00,,2013-03-22 19:12:00,
2013-03-22 15:22:00,42.0,24.0,30.02,NW,321,1.0,5.0,48,0.00,,,0.00,,2013-03-22 19:22:00,
2013-03-22 15:32:00,42.0,21.0,30.01,NNW,346,2.0,6.0,43,0.00,,,0.00,,2013-03-22 19:32:00,
2013-03-22 15:42:00,42.0,21.0,30.01,NNW,346,2.0,6.0,43,0.00,,,0.00,,2013-03-22 19:42:00,
2013-03-22 15:52:00,41.0,21.0,30.01,NNE,28,0.0,6.0,45,0.00,,,0.00,,2013-03-22 19:52:00,
2013-03-22 16:02:00,42.0,21.0,30.00,NW,310,2.0,8.0,43,0.00,,,0.00,,2013-03-22 20:02:00,
2013-03-22 16:12:00,42.0,21.0,30.00,NW,310,2.0,8.0,43,0.00,,,0.00,,2013-03-22 20:12:00,
2013-03-22 16:22:00,42.0,21.0,30.00,NE,34,1.0,6.0,43,0.00,,,0.00,,2013-03-22 20:22:00,
2013-03-22 16:32:00,43.0,22.0,30.00,NNW,347,2.0,6.0,42,0.00,,,0.00,,2013-03-22 20:32:00,
2013-03-22 16:42:00,43.0,22.0,30.00,NNW,347,2.0,6.0,42,0.00,,,0.00,,2013-03-22 20:42:00,
2013-03-22 16:52:00,43.0,23.0,30.00,NNE,30,1.0,5.0,45,0.00,,,0.00,,2013-03-22 20:52:00,
2013-03-22 17:03:00,43.0,22.0,30.00,NE,39,1.0,5.0,43,0.00,,,0.00,,2013-03-22 21:03:00,
2013-03-22 17:12:00,42.0,21.0,30.00,NNE,12,1.0,5.0,43,0.00,,,0.00,,2013-03-22 21:12:00,
2013-03-22 17:22:00,42.0,21.0,30.00,NNE,12,1.0,5.0,43,0.00,,,0.00,,2013-03-22 21:22:00,
2013-03-22 17:32:00,42.0,21.0,30.00,North,351,0.0,4.0,43,0.00,,,0.00,,2013-03-22 21:32:00,
2013-03-22 17:43:00,42.0,21.0,30.00,North,351,0.0,4.0,43,0.00,,,0.00,,2013-03-22 21:43:00,
2013-03-22 17:53:00,42.0,19.0,30.01,North,360,0.0,4.0,40,0.00,,,0.00,,2013-03-22 21:53:00,
2013-03-22 18:03:00,42.0,20.0,30.01,NNW,344,1.0,3.0,41,0.00,,,0.00,,2013-03-22 22:03:00,
2013-03-22 18:12:00,42.0,20.0,30.01,NNW,344,1.0,3.0,41,0.00,,,0.00,,2013-03-22 22:12:00,
2013-03-22 18:23:00,41.0,20.0,30.01,NNE,21,0.0,3.0,42,0.00,,,0.00,,2013-03-22 22:23:00,
2013-03-22 18:32:00,40.0,18.0,30.01,ENE,57,0.0,5.0,41,0.00,,,0.00,,2013-03-22 22:32:00,
2013-03-22 18:42:00,40.0,18.0,30.01,ENE,57,0.0,5.0,41,0.00,,,0.00,,2013-03-22 22:42:00,
2013-03-22 18:53:00,39.0,17.0,30.01,North,5,0.0,3.0,41,0.00,,,0.00,,2013-03-22 22:53:00,
2013-03-22 19:02:00,38.0,18.0,30.02,NE,47,0.0,3.0,44,0.00,,,0.00,,2013-03-22 23:02:00,
2013-03-22 19:12:00,38.0,18.0,30.02,NE,47,0.0,3.0,44,0.00,,,0.00,,2013-03-22 23:12:00,
2013-03-22 19:22:00,38.0,18.0,30.02,NE,47,0.0,3.0,44,0.00,,,0.00,,2013-03-22 23:22:00,
2013-03-22 19:32:00,36.0,19.0,30.02,NNE,15,1.0,3.0,49,0.00,,,0.00,,2013-03-22 23:32:00,
2013-03-22 19:42:00,36.0,19.0,30.02,NNE,15,1.0,3.0,49,0.00,,,0.00,,2013-03-22 23:42:00,
2013-03-22 19:52:00,36.0,20.0,30.03,NE,51,0.0,3.0,51,0.00,,,0.00,,2013-03-22 23:52:00,
2013-03-22 20:02:00,35.0,20.0,30.03,North,5,0.0,3.0,53,0.00,,,0.00,,2013-03-23 00:02:00,
2013-03-22 20:12:00,35.0,20.0,30.03,North,5,0.0,3.0,53,0.00,,,0.00,,2013-03-23 00:12:00,
2013-03-22 20:23:00,34.0,20.0,30.03,North,5,0.0,1.0,57,0.00,,,0.00,,2013-03-23 00:23:00,
2013-03-22 20:32:00,33.0,20.0,30.04,NNE,15,0.0,1.0,58,0.00,,,0.00,,2013-03-23 00:32:00,
2013-03-22 20:42:00,33.0,20.0,30.04,NNE,15,0.0,1.0,58,0.00,,,0.00,,2013-03-23 00:42:00,
2013-03-22 20:52:00,32.0,20.0,30.04,NNE,15,0.0,1.0,62,0.00,,,0.00,,2013-03-23 00:52:00,
2013-03-22 21:03:00,31.0,20.0,30.05,NNE,15,0.0,0.0,64,0.00,,,0.00,,2013-03-23 01:03:00,
2013-03-22 21:12:00,31.0,20.0,30.05,NNE,15,0.0,0.0,64,0.00,,,0.00,,2013-03-23 01:12:00,
2013-03-22 21:22:00,31.0,22.0,30.05,NNE,15,0.0,0.0,68,0.00,,,0.00,,2013-03-23 01:22:00,
2013-03-22 21:32:00,30.0,21.0,30.04,North,9,0.0,2.0,70,0.00,,,0.00,,2013-03-23 01:32:00,
2013-03-22 21:42:00,30.0,21.0,30.04,North,9,0.0,2.0,70,0.00,,,0.00,,2013-03-23 01:42:00,
2013-03-22 21:52:00,30.0,22.0,30.04,North,9,0.0,1.0,72,0.00,,,0.00,,2013-03-23 01:52:00,
2013-03-22 22:02:00,30.0,22.0,30.03,NNW,348,0.0,1.0,71,0.00,,,0.00,,2013-03-23 02:02:00,
2013-03-22 22:12:00,30.0,22.0,30.03,NNW,348,0.0,1.0,71,0.00,,,0.00,,2013-03-23 02:12:00,
2013-03-22 22:22:00,30.0,21.0,30.04,NNW,348,0.0,1.0,70,0.00,,,0.00,,2013-03-23 02:22:00,
2013-03-22 22:32:00,29.0,21.0,30.04,North,355,0.0,1.0,73,0.00,,,0.00,,2013-03-23 02:32:00,
2013-03-22 22:42:00,29.0,21.0,30.04,North,355,0.0,1.0,73,0.00,,,0.00,,2013-03-23 02:42:00,
2013-03-22 22:52:00,28.0,21.0,30.05,North,355,0.0,1.0,74,0.00,,,0.00,,2013-03-23 02:52:00,
2013-03-22 23:02:00,28.0,21.0,30.05,North,355,0.0,0.0,75,0.00,,,0.00,,2013-03-23 03:02:00,
2013-03-22 23:12:00,28.0,21.0,30.05,North,355,0.0,0.0,75,0.00,,,0.00,,2013-03-23 03:12:00,
2013-03-22 23:22:00,27.0,21.0,30.06,North,355,0.0,0.0,78,0.00,,,0.00,,2013-03-23 03:22:00,
2013-03-22 23:33:00,28.0,22.0,30.06,North,355,0.0,1.0,79,0.00,,,0.00,,2013-03-23 03:33:00,
2013-03-22 23:43:00,28.0,22.0,30.06,North,355,0.0,1.0,79,0.00,,,0.00,,2013-03-23 03:43:00,
2013-03-22 23:53:00,27.0,21.0,30.07,North,355,0.0,0.0,79,0.00,,,0.00,,2013-03-23 03:53:00,